Weather History for Vacaville, CA

Change the Weather History Date:

Tuesday, July 3, 2012

  Actual Average Record
Temperature  
Mean Temperature 74 °F -  
Max Temperature 90 °F 91 °F 109 °F (1991)
Min Temperature 57 °F 55 °F 45 °F (1963)
Cooling Degree Days 8    
Growing Degree Days 24 (Base 50)    
Moisture  
Dew Point 53 °F    
Average Humidity 50    
Maximum Humidity 78    
Minimum Humidity 26    
Precipitation  
Precipitation 0.00 in - - ()
Sea Level Pressure  
Sea Level Pressure 29.81 in    
Wind  
Wind Speed 5 mph (SW)    
Max Wind Speed 12 mph    
Max Gust Speed -    
Visibility 10 miles    
Events      
Averages and records for this station are not official NWS values.
T = Trace of Precipitation, MM = Missing Value Source: NWS Daily Summary

Daily Weather History Graph

Daily Weather History Graph

Search for Another Location

Airport:

Trip Planner

Search our weather history database for the weather conditions in past years. The results will help you decide how hot, cold, wet, or windy it might be!

Date:

Astronomy

Jul. 03, 2012 Rise Set
Actual Time 5:49 AM PDT 8:35 PM PDT
Civil Twilight 5:17 AM PDT 9:06 PM PDT
Nautical Twilight 4:38 AM PDT 9:45 PM PDT
Astronomical Twilight 3:53 AM PDT 10:30 PM PDT
Moon 8:35 PM PDT (7/3) 5:47 AM PDT (7/3)
Length of Visible Light 15h 48m
Length of Day
14h 46m
Full, 100% of the Moon is Illuminated
Jul 3
Full
Jul 10
Last Quarter
Jul 18
New
Jul 26
First Quarter
Aug 1
Full

Hourly Weather History & Observations

Time (PDT) Temp. Heat Index Dew Point Humidity Pressure Visibility Wind Dir Wind Speed Gust Speed Precip Events Conditions
12:53 AM 63.0 °F - 51.1 °F 65% 29.80 in 10.0 mi SW 5.8 mph - N/A   Clear
1:53 AM 61.0 °F - 51.1 °F 70% 29.81 in 10.0 mi WSW 6.9 mph - N/A   Clear
2:53 AM 60.1 °F - 50.0 °F 69% 29.81 in 10.0 mi SW 10.4 mph - N/A   Clear
3:53 AM 57.9 °F - 50.0 °F 75% 29.81 in 10.0 mi WSW 5.8 mph - N/A   Clear
4:53 AM 57.0 °F - 50.0 °F 77% 29.82 in 10.0 mi SW 5.8 mph - N/A   Clear
5:53 AM 57.0 °F - 50.0 °F 77% 29.84 in 10.0 mi SW 3.5 mph - N/A   Clear
6:53 AM 57.9 °F - 51.1 °F 78% 29.85 in 10.0 mi WSW 4.6 mph - N/A   Clear
7:53 AM 63.0 °F - 52.0 °F 67% 29.87 in 10.0 mi Calm Calm - N/A   Clear
8:53 AM 66.9 °F - 53.1 °F 61% 29.88 in 10.0 mi Calm Calm - N/A   Clear
9:53 AM 72.0 °F - 55.0 °F 55% 29.88 in 10.0 mi West 3.5 mph - N/A   Clear
10:53 AM 75.0 °F - 55.0 °F 50% 29.88 in 10.0 mi Calm Calm - N/A   Clear
11:53 AM 82.0 °F 81.4 °F 55.0 °F 39% 29.87 in 10.0 mi NW 4.6 mph - N/A   Clear
12:53 PM 84.0 °F - 51.1 °F 32% 29.86 in 10.0 mi Calm Calm - N/A   Clear
1:53 PM 87.1 °F - 51.1 °F 29% 29.84 in 10.0 mi Calm Calm - N/A   Clear
2:53 PM 90.0 °F - 51.1 °F 26% 29.81 in 10.0 mi Variable 5.8 mph - N/A   Clear
3:53 PM 89.1 °F 86.7 °F 53.1 °F 29% 29.80 in 10.0 mi Calm Calm - N/A   Clear
4:53 PM 90.0 °F 87.7 °F 54.0 °F 29% 29.78 in 10.0 mi SW 8.1 mph - N/A   Clear
5:53 PM 89.1 °F 87.1 °F 55.0 °F 31% 29.76 in 10.0 mi SSW 8.1 mph - N/A   Clear
6:53 PM 86.0 °F 84.5 °F 55.0 °F 35% 29.75 in 10.0 mi SSW 11.5 mph - N/A   Clear
7:53 PM 84.0 °F 82.9 °F 55.0 °F 37% 29.75 in 10.0 mi SSW 5.8 mph - N/A   Clear
8:53 PM 80.1 °F 80.0 °F 54.0 °F 40% 29.75 in 10.0 mi SW 4.6 mph - N/A   Clear
9:53 PM 78.1 °F - 52.0 °F 40% 29.76 in 10.0 mi SW 5.8 mph - N/A   Clear
10:53 PM 73.9 °F - 53.1 °F 48% 29.76 in 10.0 mi Calm Calm - N/A   Clear
11:53 PM 71.1 °F - 53.1 °F 53% 29.76 in 10.0 mi SW 8.1 mph - N/A   Clear